SL-12 DEB, 60011

Orbit data source: Space-Track

SL-12 DEB, 60011 is space debris in HEO originally from a launch on Mon, 01 Mar 2010 UTC launched from the Tyuratam Missile And Space Complex (TTMTR). Debris objects in space refer to the collection of defunct objects orbiting the Earth. Examples of debris include non-operational satellites, rocket bodies, and fragments generated from explosions, collisions, or faulty payload assembly.

Loading next visibility...
Identifier
60011, 2010-007AU
Orbit
HEO
Country
Flag of CISCIS
Related business
Manufacturer
RKKE
Mission
Spacecraft
Bus & Motor
Unknown
Mass
Unknown
Launch date (UTC)
2010-03-01 (17 years ago)
Launch vehicle
Unknown
Launch site
Tyuratam Missile And Space Complex (TTMTR)
Object type
Payload
Rocket body
Debris
Shape & HBR
Unknown shape, 1.1 m
Radar Cross Section
Medium (>0.1 m² and <1 m²)

Expand to show TLE details & history
Last TLE update: 1 year ago

TLE from 1 year ago
0 SL-12 DEB
1 60011U 10007AU  25261.07571256  .00001348  00000-0  32417-2 0  9990
2 60011  64.0258 289.0681 5706694 353.5136   1.5404  4.27453034111337
Epoch: 2025-09-18T01:49Z
TLE epoch observation values (Epoch: 2025-09-18T01:49:01.565Z)
Latitude
0.00007°
Longitude
-95.42184°
Altitude
525.916 km
Speed
9.521 km/s
True Right ascension
19h 16m 18s
True Declination
0° 00' 00"
Sunlit
Object was in full shadow at epoch
Visualization orbit readout
Latitude
Unknown
Longitude
Unknown
Altitude
Unknown
Speed
Unknown
Apparent Right ascension
Unknown
Apparent Declination
Unknown
Sunlit
N/A
Visualization observer readout
Local Sidereal Time
21:02:40
Azimuth
Unknown
Elevation
Unknown
Doppler factor
Unknown
Orbital elements
Apogee altitude
18,810.197 km
Perigee altitude
506.904 km
Semi-major axis
16,036.687 km
Eccentricity
0.57067
Inclination
64.0258°
RAAN
289.0681°
Arg. of periapsis
353.5136°
True anomaly
6.85071°
Mean anomaly
1.5404°
Eccentric anomaly
3.5848°
Mean motion
1.06874 °/min
Orbital period
336.85 mins
BSTAR
0.0032417
Loading maneuver chart data...
Computing Atmospheric mass density...
Loading historical data...
Loading historical data...
Loading historical data...
Loading historical data...
Loading historical data...
Loading historical data...
Loading historical data...

Documentation

Showing up to 5 results
|